Regional Weather Roundup
Issued by NWS

Home | Current Version | Previous Version | Graphics & Text | Print | Product List | Glossary On
Versions: 1 2 3 4 5 6 7 8 9 10 11 12 13 14 15 16 17 18 19 20 21 22 23 24 25 26 27 28 29 30 31 32 33 34 35 36 37 38 39 40 41 42 43 44 45 46 47 48
000
ASUS45 KBOI 030610
RWRID
WEATHER ROUNDUP FOR IDAHO
NATIONAL WEATHER SERVICE BOISE ID
1200 AM MDT SUN MAY 03 2015

NOTE: "FAIR" INDICATES FEW OR NO CLOUDS BELOW 12000 FEET
WITH NO SIGNIFICANT WEATHER AND/OR OBSTRUCTIONS TO VISIBILITY

IDZ012-014-030700-
SOUTHWEST IDAHO


CITY           SKY/WX    TMP DP  RH WIND       PRES   REMARKS
BOISE          CLEAR     58  29  33 CALM      29.81R
CALDWELL       CLEAR     55  32  41 W8        29.82R
MOUNTAIN HOME  PTCLDY    60  27  27 N1        29.81R
$$

IDZ016-017-030700-
SOUTHCENTRAL IDAHO


CITY           SKY/WX    TMP DP  RH WIND       PRES   REMARKS
BURLEY         MOCLDY    54  38  54 SW9       29.85R
JEROME         MOCLDY    59  29  31 SE5       29.85R
TWIN FALLS     MOCLDY    56  29  35 S12       29.85S
$$

IDZ019>023-030700-
SOUTHEAST IDAHO


CITY           SKY/WX    TMP DP  RH WIND       PRES   REMARKS
IDAHO FALLS    CLEAR     57  34  41 SW10      29.86R
POCATELLO      MOCLDY    63  31  30 SW9       29.87R
REXBURG        PTCLDY    55  27  34 CALM      29.86R
$$

IDZ006-010-011-018-031-032-030700-
CENTRAL IDAHO MOUNTAINS


CITY           SKY/WX    TMP DP  RH WIND       PRES   REMARKS
MCCALL         CLEAR     46  31  55 N7        29.91R
HAILEY         PTCLDY    52  30  43 NW8       29.92S
STANLEY          N/A     35  20  54 SE3       29.98R
SALMON         PTCLDY    55  27  33 N8        29.88R
CHALLIS        PTCLDY    49  18  29 NW6       29.89R
$$

IDZ002-004-006-007-026-030700-
NORTHERN IDAHO


CITY           SKY/WX    TMP DP  RH WIND       PRES   REMARKS
LEWISTON       CLEAR     52  28  39 S7        29.91S
LOWELL           N/A     47  37  68 CALM      29.95R
COEUR D`ALENE  CLEAR     46  32  57 E6        29.95R
MULLAN PASS    CLEAR     36  18  48 N5        29.98R WCI  32
$$



USA.gov is the U.S. government's official web portal to all federal, state and local government web resources and services.